This demonstration page uses our WeatherBlox Daily Observations layout. Learn more.

Left ArrowRight Arrow

36.17497, -115.13722

Hourly Observations for April 17, 2017

Temp ( °F °C ) Dew Point ( °F °C ) Humidity (%) Winds ( mph kmh ) Pressure ( in mb ) Visibility ( mi km ) Precip ( " mm )
12:53 am 00:53 Clear 75 23.9 19 -7.2 12 12 W 20 31 29.88 1012 10 16.0934 N/A
1:53 am 01:53 Clear 73 22.8 18 -7.8 12 12 SW 20 31 29.87 1011 10 16.0934 N/A
2:53 am 02:53 Clear 73 22.8 21 -6.1 14 14 SW 9 15 29.87 1011 10 16.0934 N/A
3:53 am 03:53 Clear 71 21.7 17 -8.3 13 13 WSW 13 20 29.86 1011 10 16.0934 N/A
4:53 am 04:53 Clear 70 21.1 15 -9.4 12 12 S 10 17 29.87 1011 10 16.0934 N/A
5:53 am 05:53 Clear 69 20.6 15 -9.4 12 12 S 14 22 29.87 1012 10 16.0934 N/A
6:53 am 06:53 Sunny 70 21.1 21 -6.1 16 16 SW 12 19 29.88 1012 10 16.0934 N/A
7:53 am 07:53 Sunny 72 22.2 29 -1.7 20 20 SW 10 17 29.88 1012 10 16.0934 N/A
8:53 am 08:53 Sunny 74 23.3 27 -2.8 17 17 N N/A 29.89 1012 10 16.0934 N/A
9:53 am 09:53 Sunny 77 25 25 -3.9 14 14 VRB 5 7 29.89 1012 10 16.0934 N/A
10:53 am 10:53 Sunny 77 25 30 -1.1 18 18 N N/A 29.9 1013 10 16.0934 N/A
11:53 am 11:53 Sunny 78 25.6 31 -0.6 18 18 undefined N/A 29.89 1012 10 16.0934 N/A
12:53 pm 12:53 Sunny 77 25 32 undefined 19 19 SSW 18 30 29.89 1012 10 16.0934 N/A
1:53 pm 13:53 Sunny 80 26.7 34 1.1 19 19 SW 16 26 29.9 1012 10 16.0934 N/A
2:53 pm 14:53 Sunny 79 26.1 33 0.6 19 19 SSW 12 19 29.88 1012 10 16.0934 N/A
3:53 pm 15:53 Sunny 79 26.1 35 1.7 20 20 SW 18 30 29.87 1012 10 16.0934 N/A
4:53 pm 16:53 Sunny 77 25 35 1.7 22 22 S 16 26 29.87 1011 10 16.0934 N/A
5:53 pm 17:53 Sunny 77 25 37 2.8 24 24 SE 8 13 29.88 1012 10 16.0934 N/A
6:53 pm 18:53 Sunny 77 25 41 5 28 28 S 8 13 29.86 1011 10 16.0934 N/A
7:53 pm 19:53 Clear 77 25 39 3.9 26 26 SW 12 19 29.87 1012 10 16.0934 N/A
8:53 pm 20:53 Clear 75 23.9 40 4.4 28 28 SSW 14 22 29.88 1012 10 16.0934 N/A
9:53 pm 21:53 Clear 75 23.9 42 5.6 31 31 SSW 17 28 29.89 1012 10 16.0934 N/A
10:53 pm 22:53 Clear 74 23.3 41 5 31 31 S 18 30 29.89 1012 10 16.0934 N/A
11:53 pm 23:53 Clear 73 22.8 43 6.1 34 34 SSW 16 26 29.88 1012 10 16.0934 N/A

Powered by AerisWeather